DW1024 Weather Reports


Display with metric or nautical units.
time (UTC)temp
F
wind
direction
speed
MPH
gust
MPH
rain 1hr
in
rain 24hr
in
rain mn
in
humidity
%
barometer
mb
20260509075154 56 84 0.0 3.0 0.00 0.00 0.00 82 1018.7
20260509073653 54 213 0.0 1.0 0.00 0.00 0.00 83 1018.9
20260509072506 54 213 0.0 1.0 0.00 0.00 0.00 83 1018.9
20260509071839 54 213 1.0 3.0 0.00 0.00 0.00 82 1018.9
20260509065153 54 194 1.0 3.0 0.00 0.00 0.00 84 1018.7
20260509063650 52 167 0.0 2.0 0.00 0.00 0.00 85 1018.6
20260509062149 52 219 0.0 1.0 0.00 0.00 0.00 85 1018.8
20260509055142 51 229 0.0 2.0 0.00 0.00 0.00 85 1019.0
20260509052142 50 209 0.0 0.0 0.00 0.00 0.00 88 1018.8
20260509045144 47 250 0.0 0.0 0.00 0.00 0.00 91 1018.4
20260509043640 45 250 0.0 0.0 0.00 0.00 0.00 90 1018.4
20260509042141 45 170 0.0 0.0 0.00 0.00 0.00 90 1018.2
20260509040640 45 170 0.0 0.0 0.00 0.00 0.00 89 1017.8
20260509035139 45 170 0.0 0.0 0.00 0.00 0.00 89 1017.7
20260509033643 44 126 0.0 1.0 0.00 0.00 0.00 89 1017.7
20260509032139 44 46 0.0 1.0 0.00 0.00 0.00 88 1017.7
20260509030639 44 46 0.0 0.0 0.00 0.00 0.00 86 1017.8
20260509025140 44 46 0.0 0.0 0.00 0.00 0.00 86 1017.6
20260509023634 44 46 0.0 0.0 0.00 0.00 0.00 86 1017.7
20260509022134 45 46 0.0 0.0 0.00 0.00 0.00 85 1017.6
20260509020635 45 46 0.0 0.0 0.00 0.00 0.00 85 1017.5
20260509015133 45 46 0.0 0.0 0.00 0.00 0.00 85 1017.3
20260509013633 45 46 0.0 0.0 0.00 0.00 0.00 84 1017.2
20260509010630 46 46 0.0 0.0 0.00 0.00 0.00 83 1017.4
20260509005129 47 46 0.0 0.0 0.00 0.00 0.00 83 1017.5
20260509003634 47 46 0.0 0.0 0.00 0.00 0.00 83 1017.5
20260509002128 47 46 0.0 0.0 0.00 0.00 0.00 83 1017.5
20260508235129 48 46 0.0 1.0 0.00 0.00 0.00 81 1017.5
20260508232131 49 46 0.0 0.0 0.00 0.00 0.00 79 1017.7
20260508230631 50 46 0.0 0.0 0.00 0.00 0.00 78 1017.8
20260508223631 52 46 0.0 0.0 0.00 0.00 0.00 75 1017.7
20260508220631 54 46 0.0 0.0 0.00 0.00 0.00 72 1017.8
20260508215132 55 46 0.0 1.0 0.00 0.00 0.00 70 1017.9
20260508213629 55 47 0.0 3.0 0.00 0.00 0.00 70 1017.9
20260508212129 56 55 0.0 3.0 0.00 0.00 0.00 69 1017.7
20260508205129 57 69 2.0 6.0 0.00 0.00 0.00 68 1017.8
20260508203630 57 35 2.0 5.0 0.00 0.00 0.00 67 1017.8
20260508202129 58 60 2.0 5.0 0.00 0.00 0.00 66 1017.5
20260508200637 58 54 2.0 3.0 0.00 0.00 0.00 66 1017.5
20260508195129 59 56 1.0 3.0 0.00 0.00 0.00 65 1017.3
20260508193631 60 39 1.0 4.0 0.00 0.00 0.00 63 1017.2
20260508192130 60 56 1.0 4.0 0.00 0.00 0.00 62 1017.0
20260508190629 61 38 2.0 5.0 0.00 0.00 0.00 61 1016.9
20260508183628 62 61 3.0 9.0 0.00 0.00 0.00 59 1016.5
20260508182127 63 55 3.0 8.0 0.00 0.00 0.00 58 1016.4
20260508180633 63 40 3.0 10.0 0.00 0.00 0.00 58 1016.3
20260508175126 63 47 4.0 9.0 0.00 0.00 0.00 57 1016.2
20260508173626 64 82 3.0 9.0 0.00 0.00 0.00 57 1016.1
20260508172120 64 43 3.0 9.0 0.00 0.00 0.00 57 1015.9
20260508170622 64 40 3.0 6.0 0.00 0.00 0.00 57 1015.7
20260508165123 64 170 3.0 8.0 0.00 0.00 0.00 56 1015.7
20260508163626 65 12 4.0 9.0 0.00 0.00 0.00 56 1015.6
20260508162132 66 49 4.0 9.0 0.00 0.00 0.00 55 1015.7
20260508160621 66 57 4.0 8.0 0.00 0.00 0.00 55 1015.7
20260508153621 66 88 3.0 8.0 0.00 0.00 0.00 53 1015.6
20260508152122 68 36 3.0 10.0 0.00 0.00 0.00 53 1015.6
20260508150621 67 121 4.0 11.0 0.00 0.00 0.00 55 1015.8
20260508145119 67 90 4.0 10.0 0.00 0.00 0.00 54 1016.1
20260508143623 67 240 2.0 8.0 0.00 0.00 0.00 54 1016.3
20260508142119 68 39 3.0 8.0 0.00 0.00 0.00 57 1016.3
20260508140619 68 155 3.0 12.0 0.00 0.00 0.00 54 1016.2
20260508135120 68 74 2.0 7.0 0.00 0.00 0.00 56 1016.2
20260508133620 66 38 4.0 11.0 0.00 0.00 0.00 57 1016.5
20260508132118 68 178 2.0 9.0 0.00 0.00 0.00 56 1016.5
20260508130620 66 86 4.0 11.0 0.00 0.00 0.00 58 1016.7
20260508125117 69 38 3.0 8.0 0.00 0.00 0.00 54 1016.7
20260508123619 67 38 2.0 7.0 0.00 0.00 0.00 60 1016.8
20260508122117 67 88 3.0 11.0 0.00 0.00 0.00 56 1016.8
20260508120617 67 273 2.0 10.0 0.00 0.00 0.00 59 1016.7
20260508115117 65 15 3.0 10.0 0.00 0.00 0.00 60 1016.7
20260508113619 67 61 3.0 12.0 0.00 0.00 0.00 56 1016.9
20260508112117 66 106 3.0 8.0 0.00 0.00 0.00 59 1017.1
20260508110618 66 76 2.0 9.0 0.00 0.00 0.00 61 1017.1
20260508105119 65 116 3.0 11.0 0.00 0.00 0.00 62 1017.2
20260508103614 64 59 3.0 9.0 0.00 0.00 0.00 64 1017.3
20260508100614 62 192 2.0 5.0 0.00 0.00 0.00 70 1017.5
20260508095114 59 41 1.0 6.0 0.00 0.00 0.00 72 1017.5
20260508093614 58 84 2.0 8.0 0.00 0.00 0.00 75 1017.6
20260508092114 57 72 2.0 7.0 0.00 0.00 0.00 77 1017.6
20260508090617 56 15 2.0 5.0 0.00 0.00 0.00 79 1017.6
20260508083614 55 52 1.0 4.0 0.00 0.00 0.00 83 1017.6